Weather History for Gillette, WY

Change the Weather History Date:

Monday, May 27, 2013

  Actual Average Record
Temperature  
Mean Temperature 54 °F 56 °F  
Max Temperature 67 °F 69 °F 94 °F (1969)
Min Temperature 41 °F 43 °F 20 °F (1984)
Degree Days  
Heating Degree Days 11 9  
Month to date heating degree days 296 350  
Since 1 July heating degree days 7258 7366  
Cooling Degree Days 0 0  
Month to date cooling degree days 8 0  
Year to date cooling degree days 8 0  
Growing Degree Days 2 (Base 50)    
Moisture  
Dew Point 47 °F    
Average Humidity 73    
Maximum Humidity 93    
Minimum Humidity 52    
Precipitation  
Precipitation T in 0.08 in 1.24 in (1981)
Month to date precipitation 1.43 2.10  
Year to date precipitation 4.55 5.31  
Sea Level Pressure  
Sea Level Pressure 29.74 in    
Wind  
Wind Speed 8 mph (North)    
Max Wind Speed 33 mph    
Max Gust Speed 44 mph    
Visibility 10 miles    
Events Rain    
T = Trace of Precipitation, MM = Missing Value Source: NWS Daily Summary

Daily Weather History Graph

Daily Weather History Graph

Search for Another Location

Airport:

Trip Planner

Search our weather history database for the weather conditions in past years. The results will help you decide how hot, cold, wet, or windy it might be!

Date:

Astronomy

May. 27, 2013 Rise Set
Actual Time 5:24 AM MDT 8:35 PM MDT
Civil Twilight 4:48 AM MDT 9:10 PM MDT
Nautical Twilight 4:03 AM MDT 9:56 PM MDT
Astronomical Twilight 3:08 AM MDT 10:51 PM MDT
Moon 11:13 PM MDT (5/27) 8:06 AM MDT (5/27)
Length of Visible Light 16h 21m
Length of Day
15h 11m
Waning Gibbous, 90% of the Moon is Illuminated
May 27
Waning Gibbous
May 31
Last Quarter
Jun 8
New
Jun 16
First Quarter
Jun 23
Full

Hourly Weather History & Observations

Time (MDT) Temp. Windchill Dew Point Humidity Pressure Visibility Wind Dir Wind Speed Gust Speed Precip Events Conditions
12:53 AM 53.1 °F - 48.0 °F 83% 29.74 in 10.0 mi SSE 9.2 mph - N/A   Clear
1:53 AM 53.1 °F - 48.0 °F 83% 29.73 in 10.0 mi SSE 9.2 mph - N/A   Clear
2:53 AM 53.1 °F - 48.0 °F 83% 29.70 in 10.0 mi South 4.6 mph - N/A   Clear
3:53 AM 50.0 °F - 46.9 °F 89% 29.71 in 10.0 mi NNW 8.1 mph - N/A   Clear
4:53 AM 50.0 °F - 48.0 °F 93% 29.76 in 10.0 mi NNW 8.1 mph - N/A   Mostly Cloudy
5:53 AM 53.1 °F - 51.1 °F 93% 29.78 in 10.0 mi NNW 4.6 mph - N/A   Overcast
6:53 AM 55.0 °F - 50.0 °F 83% 29.76 in 10.0 mi Calm Calm - N/A   Overcast
7:53 AM 55.9 °F - 51.1 °F 84% 29.75 in 10.0 mi Calm Calm - N/A   Overcast
8:53 AM 55.9 °F - 51.1 °F 84% 29.75 in 10.0 mi WNW 5.8 mph - N/A   Overcast
9:53 AM 57.0 °F - 53.1 °F 87% 29.75 in 10.0 mi NW 11.5 mph - N/A   Mostly Cloudy
10:53 AM 57.0 °F - 48.9 °F 74% 29.76 in 10.0 mi NNW 18.4 mph - N/A   Overcast
11:30 AM 60.8 °F - 50.0 °F 68% 29.82 in 10.0 mi North 12.7 mph - N/A   Scattered Clouds
11:53 AM 60.1 °F - 48.9 °F 67% 29.73 in 10.0 mi NE 8.1 mph - N/A   Clear
12:53 PM 63.0 °F - 46.9 °F 56% 29.71 in 10.0 mi NNW 10.4 mph - N/A   Unknown
1:53 PM 64.9 °F - 48.9 °F 56% 29.71 in 10.0 mi Variable 5.8 mph - N/A   Clear
2:53 PM 64.0 °F - 46.0 °F 52% 29.66 in 10.0 mi SE 13.8 mph 40.3 mph N/A   Squalls
3:38 PM 62.6 °F - 48.2 °F 59% 29.75 in 10.0 mi NNE 13.8 mph - N/A   Partly Cloudy
3:53 PM 64.9 °F - 51.1 °F 61% 29.66 in 10.0 mi North 19.6 mph 26.5 mph N/A   Partly Cloudy
4:53 PM 54.0 °F - 45.0 °F 72% 29.74 in 10.0 mi NNE 11.5 mph - 0.00 in Rain Light Rain
5:38 PM 57.2 °F - 46.4 °F 67% 29.79 in 10.0 mi NNW 16.1 mph - 0.00 in   Clear
5:53 PM 57.0 °F - 46.0 °F 67% 29.73 in 10.0 mi North 13.8 mph 24.2 mph 0.00 in   Clear
6:53 PM 59.0 °F - 45.0 °F 60% 29.70 in 10.0 mi North 15.0 mph - N/A   Clear
7:53 PM 55.9 °F - 43.0 °F 62% 29.73 in 10.0 mi North 12.7 mph - N/A   Clear
8:53 PM 50.0 °F - 43.0 °F 77% 29.78 in 10.0 mi North 6.9 mph - N/A   Clear
9:53 PM 46.9 °F - 42.1 °F 83% 29.78 in 10.0 mi NNW 5.8 mph - N/A   Clear
10:53 PM 41.0 °F - 39.9 °F 96% 29.79 in 10.0 mi Calm Calm - N/A   Clear
11:53 PM 43.0 °F 41.3 °F 39.9 °F 89% 29.75 in 10.0 mi SW 3.5 mph - N/A   Clear